Vorticity
nan nan nan nan nan nan nan nan nan nan nan nan nan nan nan nan nan nan nan nan nan nan nan nan nan nan nan nan nan nan nan nan nan nan nan nan nan nan nan nan nan nan nan
nan 6 7 7 7 7 8 8 8 7 7 7 8 8 7 7 7 7 7 5 6 8 7 6 7 5 7 7 5 4 6 6 5 6 5 5 6 6 6 5 6 6 nan
nan 6 6 7 7 8 8 7 7 7 7 7 8 7 7 7 7 6 6 6 4 7 9 7 7 6 6 6 6 6 7 6 5 5 5 5 5 5 5 5 5 6 nan
nan 5 6 7 8 7 7 7 6 6 7 8 7 8 8 8 7 6 6 7 7 7 5 8 7 6 5 6 7 8 8 7 5 4 4 5 5 4 4 5 6 6 nan
nan 5 6 8 8 7 7 6 6 8 8 8 8 8 9 9 7 7 7 6 7 7 5 5 5 5 6 6 7 8 8 6 5 6 5 4 4 4 4 5 5 5 nan
nan 5 7 8 7 6 7 7 6 6 10 9 7 7 9 10 8 8 6 7 7 7 7 5 4 3 4 5 6 7 8 8 7 5 6 7 5 4 4 4 4 4 nan
nan 6 7 9 8 8 8 5 5 7 9 7 5 6 8 10 9 7 7 8 7 6 7 6 7 6 4 5 9 11 10 8 7 6 7 7 6 5 5 5 5 5 nan
nan 7 7 8 7 7 9 5 3 6 11 7 2 8 9 6 9 9 8 9 7 6 7 6 7 8 8 7 8 10 11 9 7 7 6 6 6 6 5 5 5 6 nan
nan 8 7 7 7 6 8 7 5 4 8 9 5 6 9 9 9 10 9 9 7 5 7 7 7 7 8 8 8 6 7 8 7 7 6 6 6 6 6 6 6 7 nan
nan 8 8 8 6 7 9 7 6 4 6 9 8 8 7 12 9 8 10 11 9 8 6 6 7 8 7 6 6 6 5 6 7 6 6 7 7 7 8 7 7 9 nan
nan 10 9 7 5 6 9 9 8 4 3 8 9 9 8 8 9 10 11 10 9 10 8 7 8 7 7 6 5 4 4 5 6 7 8 8 8 9 9 9 9 8 nan
nan 12 10 8 7 8 9 9 9 9 4 4 9 9 10 10 9 8 9 11 12 11 9 8 8 8 7 6 5 3 5 5 7 7 8 10 10 9 9 9 9 9 nan
nan 12 9 7 8 8 8 9 10 10 8 8 8 6 7 9 10 9 10 10 10 10 11 10 10 9 7 6 3 5 6 5 6 6 8 10 9 9 9 9 9 9 nan
nan 11 11 9 9 9 8 8 7 10 10 11 9 7 8 9 9 10 10 7 8 9 9 11 10 9 7 5 3 6 6 5 5 7 8 8 9 9 9 9 9 9 nan
nan 16 12 10 10 10 10 7 9 10 9 9 11 10 8 6 10 9 9 9 10 10 9 9 10 10 8 5 4 7 7 4 5 7 8 9 9 9 10 9 8 9 nan
nan 12 12 12 11 10 10 9 10 11 8 8 10 10 8 11 9 9 9 9 10 10 10 9 9 10 8 6 6 8 8 7 9 6 8 10 11 10 10 9 9 8 nan
nan 12 12 12 11 11 9 8 10 10 9 9 10 8 8 11 7 10 8 11 9 8 10 8 9 9 7 7 8 9 9 10 8 6 7 10 11 11 10 10 10 11 nan
nan 13 12 12 12 12 12 11 10 11 9 8 8 8 9 8 9 8 10 9 10 8 7 7 9 10 8 8 9 9 9 8 7 6 8 10 10 12 12 12 10 10 nan
nan 12 13 12 12 12 12 12 12 11 10 10 10 10 10 9 9 7 9 7 8 10 10 9 8 8 9 9 10 10 8 9 7 9 11 11 12 12 9 8 8 9 nan
nan 12 13 13 12 12 10 11 9 8 9 9 10 10 9 10 10 11 9 9 8 8 8 7 8 8 8 9 8 7 9 9 8 12 14 14 13 12 11 10 12 10 nan
nan 14 12 11 11 8 14 13 9 8 8 8 8 7 9 10 9 6 7 9 8 8 8 10 9 8 7 7 7 9 9 9 12 13 13 11 12 11 13 14 12 9 nan
nan 11 10 10 10 14 18 10 9 7 8 8 7 8 8 9 10 9 7 9 12 7 5 7 8 6 8 9 8 8 8 9 11 12 7 6 9 9 11 12 7 8 nan
nan 10 11 10 10 16 12 8 8 7 9 9 9 10 9 8 10 9 9 8 8 9 11 10 7 8 9 10 10 9 9 9 7 6 8 11 11 11 11 10 7 7 nan
nan 10 10 9 10 13 10 6 3 7 11 10 10 10 10 8 5 8 10 10 10 12 12 8 8 9 10 9 9 9 9 10 12 11 11 11 11 11 10 10 13 12 nan
nan 9 10 9 11 10 11 8 3 7 11 11 7 7 6 7 8 9 12 11 10 10 9 8 10 10 9 10 12 13 13 11 12 12 16 13 9 10 13 14 19 18 nan
nan nan nan nan nan nan nan nan nan nan nan nan nan nan nan nan nan nan nan nan nan nan nan nan nan nan nan nan nan nan nan nan nan nan nan nan nan nan nan nan nan nan nan
CAPE
223 260 120 229 93 0 0 0 0 0 0 0 0 0 0 0 0 0 0 0 0 0 0 0 0 0 0 0 0 0 0 0 0 0 1 2 2 2 2 3 4 4 1
254 200 74 113 39 0 0 0 0 0 0 0 0 0 0 0 0 0 0 0 0 0 0 0 0 0 0 0 0 0 0 0 0 0 1 1 0 0 2 2 2 2 3
64 151 108 64 8 0 0 0 0 0 0 0 0 0 0 0 0 0 0 0 0 0 0 0 0 0 0 0 0 0 0 0 0 0 0 0 1 1 1 1 1 2 1
0 40 68 45 0 0 0 0 0 0 0 0 0 0 0 0 0 0 0 0 0 0 0 0 0 0 0 0 0 0 0 0 0 0 0 0 0 1 1 1 1 1 1
0 0 2 2 0 0 0 0 0 0 0 0 0 0 0 0 0 0 0 0 0 0 0 0 0 0 0 0 0 0 0 0 0 0 0 0 1 2 2 4 3 4 4
0 0 0 0 0 0 0 0 0 0 0 0 0 0 0 0 0 0 0 0 0 0 0 0 0 0 0 0 0 0 0 0 0 0 0 0 1 2 3 4 3 6 6
0 0 0 0 0 0 0 0 0 0 0 0 0 0 0 0 0 0 0 0 0 0 0 0 0 0 0 0 0 0 0 0 0 0 0 0 1 3 6 9 11 10 10
0 0 0 0 0 0 0 0 0 0 0 0 0 0 0 0 0 0 0 0 0 0 0 0 0 0 0 0 0 0 0 0 0 0 0 2 4 8 12 13 15 17 20
0 0 0 0 0 0 0 0 0 0 0 0 0 0 0 0 0 0 0 0 0 0 0 0 0 0 0 0 0 0 0 0 0 0 0 2 7 10 13 16 20 20 24
0 0 0 0 0 0 0 0 0 0 0 0 0 0 0 0 0 0 0 0 0 0 0 0 0 0 0 0 0 0 0 0 0 0 0 3 7 13 19 23 23 25 27
0 0 0 0 0 0 0 0 0 0 0 0 0 0 0 0 0 0 0 0 0 0 0 0 0 0 0 0 0 0 0 0 0 0 0 3 10 18 23 27 26 24 23
0 0 0 0 0 0 0 0 0 0 0 0 0 0 0 0 0 0 0 0 0 0 0 0 0 0 0 0 0 0 0 0 0 0 2 8 15 19 27 30 30 28 28
0 0 0 0 0 0 0 0 0 0 0 0 0 0 0 0 0 0 0 0 0 0 0 0 0 0 0 0 0 0 0 0 0 0 3 12 14 14 15 17 26 26 27
0 0 0 0 0 0 0 0 0 0 0 0 0 0 0 0 0 0 0 0 0 0 0 0 0 0 0 0 0 0 0 0 0 0 1 2 4 6 6 11 16 23 28
0 0 0 0 0 0 0 0 0 0 0 0 0 0 0 0 0 0 0 0 0 0 0 0 0 0 0 0 0 0 0 0 0 0 0 0 1 3 6 10 15 21 22
0 0 0 0 0 0 0 0 0 0 0 0 0 0 0 0 0 0 0 0 0 0 0 0 0 0 0 0 0 0 0 0 0 0 0 1 4 8 13 17 21 25 20
0 0 0 0 0 0 0 0 0 0 0 0 0 0 0 0 0 0 0 0 0 0 0 0 0 0 0 0 0 0 0 0 0 0 0 2 8 11 16 20 21 20 22
0 0 0 0 0 0 0 0 0 0 0 0 0 0 0 0 0 0 0 0 0 0 0 0 0 0 0 0 0 0 0 0 0 0 0 3 6 6 8 11 15 19 21
0 0 0 0 0 0 0 0 0 0 0 0 0 0 0 0 0 0 0 0 0 0 0 0 0 0 0 0 0 0 0 0 0 0 0 0 0 1 4 7 13 14 11
0 0 0 0 0 0 0 0 0 0 0 0 0 0 0 0 0 0 0 0 0 0 0 0 0 0 0 0 0 0 1 1 0 0 0 0 0 0 0 0 1 0 2
0 0 0 0 0 0 0 0 0 0 0 0 0 0 0 0 1 3 1 0 0 0 0 0 0 0 0 1 5 6 3 2 2 0 0 0 0 0 0 0 0 0 0
0 0 0 0 0 2 4 3 0 0 0 0 0 1 1 0 0 2 0 0 0 0 0 0 0 0 4 7 5 2 5 11 7 0 0 1 0 0 0 0 0 0 0
0 0 0 0 0 2 5 2 0 0 0 0 1 0 0 1 1 0 0 0 0 0 1 3 7 5 3 5 10 1 13 14 8 4 3 2 0 0 0 0 0 0 1
1 1 1 1 3 7 13 9 2 0 0 0 0 0 0 0 0 0 0 0 0 0 0 0 1 6 8 3 8 12 18 10 2 0 0 4 0 0 0 0 0 0 0
0 0 0 0 0 1 20 11 0 0 0 0 0 0 0 0 0 0 0 0 0 0 0 0 0 2 4 4 4 2 4 6 2 0 0 1 0 0 0 0 0 0 0
0 0 0 0 7 1 21 2 0 0 0 0 0 0 0 0 0 1 7 1 0 0 0 0 0 0 0 0 0 0 1 5 5 3 0 0 0 1 2 0 0 0 0